Location: Calvatone
(45.1167°N, 10.4333°E)
Time: 12:22:57
(UTC+00:00)

COSMOS 2455 - Pass Details

Date: 28 January 2023
Orbit: 898 x 911 km, 67.1° (Epoch: 25 March)

Event Time Altitude Azimuth Distance (km) Brightness Sun altitude
Rises 18:14:41 0° 231° (SW) 3,513 6.9 -20.3°
Reaches altitude 10° 18:17:18 10° 238° (WSW) 2,578 6.1 -20.7°
Maximum altitude 18:23:00 45° 310° (NW) 1,221 3.8 -21.8°
Enters shadow 18:28:06 13° 20° (NNE) 2,372 4.8 -22.6°
